Home   Weather   Inverness   Past weeks

Flag for United Kingdom Past Weather in Inverness, Scotland, United Kingdom — Yesterday and Last 2 Weeks

Now
57 °F

Scattered showers. Passing clouds.


Feels Like: 55 °F
Forecast: 48 / 59 °F
Wind: 8 mph from West

Location: Inverness / Dalcross

Current Time: Sep 24, 2016 at 9:57:33 PM

Latest Report: Sep 24, 2016 at 9:20 PM


Visibility: N/A

Pressure: 29.53 "Hg

Humidity: 88%

Dew Point: 54 °F

Location of InvernessLocation

Past Weather in Inverness — Graph

°F

Inverness Temperature Yesterday

Maximum temperature yesterday: 59 °F (at 11:20 PM)
Minimum temperature yesterday: 46 °F (at 1:20 AM)
Average temperature yesterday: 53 °F

High & Low Weather Summary for the Past Weeks

 TemperatureHumidityPressure
High72 °F (Sep 12, 3:20 PM)100% (Sep 12, 8:50 PM)30.21 "Hg (Sep 12, 8:50 PM)
Low45 °F (Sep 11, 5:20 AM)52% (Sep 11, 4:20 PM)29.27 "Hg (Sep 9, 8:50 PM)
Average56 °F81%29.89 "Hg
* Reported Sep 9 8:20 PM — Sep 24 8:20 PM, Inverness, Weather by CustomWeather, © 2016

Note: Actual official high and low records may vary slightly from our data, if they occured in-between our weather recording intervals... More about our weather records

Advertising

Inverness Weather History for the Previous 24 Hours

Scroll right to see more
 ConditionsComfort  
Time TempWeatherWind HumidityBarometerVisibility
8:20 PM
Sat, Sep 24
59 °FSprinkles. Passing clouds.7 mph82%29.53 "HgN/A
7:50 PM59 °FSprinkles. Passing clouds.10 mph82%29.53 "HgN/A
7:20 PM61 °FPassing clouds.12 mph77%29.53 "HgN/A
6:50 PM63 °FScattered showers. Scattered clouds.17 mph68%29.53 "HgN/A
6:20 PM63 °FScattered showers. Scattered clouds.12 mph83%29.50 "HgN/A
5:50 PM63 °FLight rain. Scattered clouds.16 mph83%29.50 "HgN/A
5:20 PM66 °FScattered showers. Partly sunny.14 mph73%29.50 "HgN/A
4:50 PM66 °FPartly sunny.9 mph73%29.50 "HgN/A
3:50 PM66 °FPartly sunny.10 mph73%29.53 "HgN/A
3:20 PM66 °FPartly sunny.13 mph73%29.53 "HgN/A
2:50 PM66 °FPartly sunny.15 mph73%29.53 "HgN/A
2:20 PM66 °FPartly sunny.5 mph73%29.53 "HgN/A
1:50 PM64 °FPartly sunny.3 mph78%29.53 "HgN/A
1:20 PM64 °FPartly sunny.8 mph78%29.56 "HgN/A
12:50 PM64 °FPartly sunny.13 mph78%29.56 "HgN/A
12:20 PM64 °FScattered showers. Partly sunny.12 mph78%29.53 "HgN/A
11:50 AM66 °FScattered showers. Partly sunny.15 mph68%29.53 "HgN/A
11:20 AM66 °FScattered showers. Scattered clouds.17 mph68%29.53 "HgN/A
10:50 AM68 °FScattered clouds.17 mph64%29.53 "HgN/A
10:20 AM66 °FScattered clouds.21 mph68%29.53 "HgN/A
9:50 AM64 °FScattered showers. Partly sunny.22 mph73%29.53 "HgN/A
9:20 AM64 °FScattered showers. Scattered clouds.18 mph68%29.56 "HgN/A
8:50 AM64 °FScattered showers. Scattered clouds.15 mph68%29.56 "HgN/A
8:20 AM63 °FLight rain. Scattered clouds.14 mph73%29.53 "HgN/A
7:50 AM63 °FScattered clouds.16 mph73%29.53 "HgN/A
7:20 AM63 °FScattered clouds.10 mph73%29.56 "HgN/A
6:50 AM63 °FPassing clouds.13 mph68%29.56 "HgN/A
6:20 AM61 °FPassing clouds.20 mph72%29.59 "HgN/A
5:50 AM61 °FPassing clouds.20 mph72%29.59 "HgN/A
5:20 AM61 °FPassing clouds.18 mph72%29.59 "HgN/A
4:50 AM59 °FPassing clouds.15 mph77%29.62 "HgN/A
4:20 AM59 °FPassing clouds.13 mph77%29.62 "HgN/A
3:50 AM59 °FPassing clouds.16 mph72%29.65 "HgN/A
3:20 AM59 °FPassing clouds.17 mph72%29.65 "HgN/A
2:50 AM59 °FPassing clouds.17 mph72%29.68 "HgN/A
2:20 AM59 °FPassing clouds.13 mph72%29.68 "HgN/A
1:50 AM57 °FCool.9 mph77%29.68 "HgN/A
1:20 AM57 °FCool.17 mph77%29.71 "HgN/A
12:50 AM57 °FCool.15 mph77%29.71 "HgN/A
12:20 AM57 °FCool.15 mph82%29.74 "HgN/A
11:50 PM
Fri, Sep 23
57 °FPassing clouds.10 mph82%29.74 "HgN/A
11:20 PM59 °FPassing clouds.10 mph77%29.74 "HgN/A
10:50 PM57 °FOvercast.3 mph82%29.74 "HgN/A
10:20 PM57 °FPartly cloudy.6 mph82%29.77 "HgN/A
9:50 PM57 °FPartly cloudy.3 mph77%29.77 "HgN/A
9:20 PM57 °FPartly cloudy.10 mph77%29.77 "HgN/A
Weather by CustomWeather, © 2016

See weather overviewHow to use our weather pages